Location: *
(46.1333°S, 161.2167°W)
Time: 03:45:01
(UTC+00:00)

SL-16 R/B - Pass Details

Date: 15 July 2020
Orbit: 842 x 846 km, 71.0° (Epoch: 10 August)

Event Time Altitude Azimuth Distance (km) Brightness Sun altitude
Rises 17:35:37 0° 315° (NW) 3,405 5.1 -7.9°
Reaches altitude 10° 17:38:09 10° 309° (NW) 2,476 4.4 -7.5°
Maximum altitude 17:43:36 45° 236° (SW) 1,150 2.5 -6.6°
Drops below altitude 10° 17:49:07 10° 163° (SSE) 2,500 4.6 -5.8°
Sets 17:51:42 0° 157° (SSE) 3,440 5.4 -5.4°
